SCP
0 -0 0 0 0 -0 -0 0 0 0 0 0 0 -0 -0 0 -0 0 0 0 0 0 0 0 1 1 0 0 0 0 0 0 0 0 0 0 0 0 0 0 0 0 0 0 0 0 0 0 0
0 0 0 0 -0 0 -0 -0 0 0 0 0 0 0 0 -0 0 0 0 0 0 0 0 0 0 1 1 0 0 0 0 0 0 0 0 0 0 0 0 0 0 0 0 0 0 0 0 0 0
0 -0 0 0 0 0 -0 0 0 0 0 0 0 0 0 0 0 -0 0 0 0 0 0 0 1 1 1 1 1 0 0 0 0 0 0 0 0 0 0 0 0 0 0 0 0 0 0 0 0
0 0 0 0 0 -0 -0 0 0 0 0 0 -0 -0 0 0 0 0 0 0 0 0 0 1 1 1 1 1 1 1 1 0 0 0 0 0 0 0 0 0 0 0 0 0 0 0 0 0 0
-0 0 0 0 -0 -0 0 -0 0 0 -0 0 0 -0 0 0 0 0 0 0 0 0 0 1 1 1 1 1 1 1 1 1 1 0 0 0 0 0 0 0 0 0 0 0 0 0 0 0 0
0 -0 0 0 0 0 0 0 0 0 0 0 0 0 0 0 0 0 0 0 0 0 0 0 2 1 1 1 1 1 1 1 1 1 1 1 1 1 0 0 0 0 0 0 0 0 0 0 0
-0 0 0 -0 0 0 0 0 0 0 0 0 0 0 0 0 0 0 0 0 0 0 0 0 2 2 1 2 1 1 1 1 1 1 1 1 1 1 0 0 0 0 0 0 0 0 0 0 0
0 0 0 0 0 0 0 0 0 0 0 0 0 0 -0 0 0 0 0 0 0 0 0 0 1 2 1 1 2 2 2 1 1 2 1 1 1 1 0 0 0 0 0 0 0 0 0 0 0
0 0 0 0 0 0 0 0 0 0 0 0 0 0 0 0 0 0 0 0 0 0 0 0 0 1 1 1 1 2 1 1 1 1 1 1 0 0 0 0 1 0 0 0 0 0 0 0 0
0 0 0 0 0 0 0 0 0 0 0 0 0 0 0 0 0 0 0 0 0 0 0 0 0 1 1 1 1 2 1 1 1 0 0 1 1 0 0 1 0 0 0 0 0 0 0 0 0
0 0 0 0 0 0 0 0 0 0 0 0 0 -0 0 0 0 0 0 0 0 0 0 0 3 3 2 1 1 2 1 1 1 1 1 1 1 1 1 1 1 0 0 0 0 0 0 0 0
0 0 0 0 0 0 0 0 0 0 0 0 0 0 0 0 0 0 0 0 0 0 0 0 1 5 4 2 1 2 1 1 1 1 1 1 1 1 1 1 1 1 0 0 0 0 0 0 0
0 0 0 0 0 0 0 0 0 0 0 0 0 0 0 0 0 0 0 0 0 0 0 0 2 7 5 4 2 2 2 1 1 1 1 1 1 1 1 2 1 0 0 0 0 0 0 0 0
0 0 0 0 0 0 0 0 0 0 0 0 0 0 0 0 0 0 0 0 0 0 0 0 2 8 4 2 5 5 3 1 1 1 1 1 1 1 1 1 1 0 0 0 0 0 0 0 0
0 0 0 0 0 0 0 0 0 0 0 0 0 0 0 0 0 0 0 0 0 0 0 0 2 4 4 2 3 4 1 1 1 1 1 1 1 1 1 1 1 1 0 1 1 0 0 0 0
0 0 0 0 0 0 0 0 0 0 0 0 0 0 0 0 0 0 0 0 0 0 0 0 0 1 2 2 3 2 1 1 1 1 1 1 1 1 1 1 0 1 1 0 1 1 0 0 0
0 0 0 0 0 0 0 0 0 0 0 0 0 0 0 0 0 0 0 0 0 0 0 0 0 0 1 2 2 2 3 1 1 1 1 1 1 1 1 1 1 0 1 1 0 0 0 0 0
0 0 0 0 0 0 0 0 0 0 0 0 0 0 0 0 0 0 0 0 0 0 0 0 0 1 2 1 2 1 1 1 1 1 1 1 1 1 1 1 1 1 1 0 0 0 0 0 0
0 0 0 0 0 0 0 0 0 0 0 0 0 0 0 0 0 0 0 0 0 0 0 0 0 1 1 1 1 1 1 1 1 1 1 1 1 1 1 1 1 0 0 0 0 0 0 0 0
0 0 0 0 0 0 0 0 0 0 0 0 0 0 0 0 0 0 0 0 0 0 0 0 0 1 1 1 1 1 0 0 0 0 1 1 1 1 1 0 0 0 0 0 0 0 0 0 0
0 0 0 0 0 0 0 0 0 0 0 0 0 0 0 0 0 0 0 0 0 0 0 0 0 0 0 1 1 1 1 1 0 0 0 0 0 0 0 0 0 0 0 0 0 0 0 0 0
0 0 0 0 0 0 0 0 0 0 0 0 0 0 0 0 0 0 0 0 0 0 0 0 0 0 0 0 1 1 0 0 1 1 1 1 1 1 0 0 0 0 0 0 0 -0 -0 0 0
-0 0 0 0 0 0 0 0 -0 0 0 0 0 0 0 0 0 0 0 0 0 0 0 0 0 0 0 0 0 0 0 0 0 0 1 1 1 0 0 0 0 0 0 -0 -0 -0 0 0 0
0 0 0 0 0 0 0 0 -0 -0 0 0 -0 0 0 0 0 0 0 0 0 0 0 0 0 0 0 0 0 0 1 0 0 0 0 0 0 0 0 0 0 0 -0 -0 0 0 -0 0 0
0 0 0 0 0 0 0 0 0 -0 -0 0 0 -0 0 0 0 0 0 0 0 0 0 0 0 0 0 0 0 0 0 0 0 0 0 0 0 0 0 0 -0 -0 -0 0 0 0 -0 -0 0
0 0 0 0 0 0 0 0 0 -0 0 -0 -0 0 0 0 0 0 0 0 0 0 0 0 0 0 0 0 0 0 0 0 0 0 0 0 0 0 -0 -0 -0 -0 -0 0 0 0 -0 0 0
0 0 0 0 0 0 0 0 0 0 -0 -0 0 0 0 0 0 -0 0 0 0 0 0 0 0 0 0 0 0 0 0 0 0 0 0 0 0 -0 -0 -0 -0 -0 -0 0 0 0 0 0 0
0 0 0 0 0 0 0 0 0 0 0 0 0 -0 -0 0 0 0 -0 -0 0 0 0 0 0 0 0 0 0 0 0 0 0 0 0 0 0 0 -0 0 0 -0 -0 0 0 -0 -0 0 0
0 0 0 0 0 0 0 0 0 0 0 0 0 -0 -0 -0 0 -0 -0 -0 0 0 0 0 -0 -0 0 0 0 0 0 0 0 0 0 -0 -0 -0 -0 -0 0 -0 -0 -0 -0 -0 0 0 -0
0 0 0 0 0 0 0 0 0 0 0 0 0 0 -0 -0 -0 -0 -0 -0 -0 0 -0 -0 -0 -0 0 0 0 0 0 0 0 0 0 0 -0 -0 -0 -0 0 0 -0 -0 -0 -0 -0 0 0
Wind_Speed_500mb
20 24 17 9 12 14 31 26 27 7 16 3 9 13 20 26 24 10 11 10 19 33 11 14 21 25 24 21 17 14 11 7 4 7 12 17 21 21 18 18 19 20 22 22 21 21 25 23 18
22 19 11 13 14 24 29 27 20 21 14 9 15 17 19 17 18 9 10 19 22 32 15 15 23 28 28 25 20 18 15 9 5 7 11 15 20 24 24 19 17 18 21 18 21 24 23 25 22
23 18 15 10 25 27 21 4 15 14 9 15 11 6 17 11 2 9 5 16 27 33 21 19 25 29 30 28 25 23 19 15 11 9 13 19 22 24 24 25 24 23 22 27 21 20 22 23 23
23 18 26 21 36 30 27 17 11 7 20 13 18 19 7 3 4 3 2 18 24 29 32 22 29 32 33 32 30 26 23 20 16 15 16 20 23 22 22 24 27 30 30 30 29 27 23 23 22
28 31 26 29 36 33 14 29 2 15 25 13 3 24 5 19 5 4 2 17 20 26 30 30 31 36 36 36 33 30 27 24 22 21 21 25 26 24 23 27 31 35 35 35 37 32 28 26 29
32 40 27 30 39 35 13 20 24 25 28 15 7 22 13 10 5 4 4 15 20 25 33 37 33 42 41 40 38 35 32 30 30 27 27 28 30 29 29 30 37 37 36 35 36 39 39 35 37
40 27 33 37 35 31 11 23 21 28 27 16 7 14 15 8 5 5 8 14 23 27 34 38 38 45 47 45 43 40 38 37 37 36 34 34 34 31 33 33 35 34 34 36 38 41 38 40 42
49 27 46 36 33 36 27 12 32 21 18 10 6 17 25 18 7 14 17 17 24 29 34 39 39 42 48 51 52 48 46 44 43 43 40 39 39 38 34 34 38 34 36 34 35 39 43 46 46
44 33 35 42 42 34 31 17 25 7 22 24 24 31 33 34 27 28 27 25 26 31 37 39 41 40 43 47 49 55 54 50 48 47 46 40 34 29 35 38 32 41 41 41 42 38 41 43 47
51 32 51 43 38 38 35 23 32 19 26 37 38 42 35 23 30 37 39 39 39 35 41 43 47 46 44 41 40 44 49 54 49 40 30 30 28 27 29 30 35 45 44 43 40 35 36 36 29
58 48 48 48 55 56 48 38 39 44 33 40 36 49 37 42 43 44 47 47 44 49 43 50 54 56 51 43 42 36 31 34 32 35 33 30 29 28 28 30 33 34 29 27 26 27 19 22 21
59 69 64 64 71 62 47 60 49 54 51 43 50 59 54 49 50 52 54 58 63 60 48 49 55 63 66 49 47 41 37 35 32 28 32 31 26 28 28 29 27 31 25 27 26 24 26 28 24
63 56 70 74 73 72 73 73 58 65 65 60 59 60 58 57 57 56 59 65 67 66 60 46 59 70 70 67 48 48 45 39 32 30 29 30 27 29 27 38 32 36 32 30 29 27 29 27 30
76 78 80 83 84 83 66 72 79 66 77 77 61 63 64 61 57 62 69 73 69 65 52 44 61 71 66 65 59 61 53 36 33 28 27 30 30 27 25 31 35 33 32 35 37 34 30 34 32
86 70 69 72 72 65 67 74 69 75 78 78 66 67 66 53 59 67 70 65 59 56 47 44 58 63 65 62 64 53 42 42 31 26 26 30 30 28 29 30 34 41 30 37 37 44 35 32 35
67 67 60 62 66 68 56 69 57 75 70 65 58 65 51 57 63 64 60 56 53 44 41 40 52 53 59 55 53 49 38 31 28 26 24 27 30 33 30 37 39 36 35 38 41 40 37 33 33
56 58 71 62 60 55 56 75 56 69 70 70 66 46 53 64 64 63 57 47 39 41 40 44 51 48 53 51 44 40 39 34 23 23 23 26 30 33 32 41 37 37 36 35 38 40 37 31 31
62 65 64 65 56 57 62 70 56 62 57 69 61 53 67 67 65 63 50 36 33 32 37 45 45 48 54 42 41 35 31 25 22 22 23 26 29 33 38 35 35 35 35 35 31 38 33 28 27
62 52 66 62 55 60 59 62 45 55 69 61 64 53 66 68 67 51 34 33 28 25 30 40 41 51 48 43 39 34 28 21 20 22 24 26 29 29 30 35 40 37 33 32 36 31 30 28 29
63 63 65 59 58 50 50 57 49 50 49 67 67 65 62 74 50 42 22 19 19 21 28 33 39 47 45 38 35 27 23 20 19 19 20 30 26 29 27 28 25 25 27 29 26 27 30 30 30
63 63 60 64 51 52 52 52 59 58 59 64 82 82 71 52 56 46 20 14 18 25 31 36 41 41 41 33 31 26 19 21 16 18 20 25 24 20 22 21 19 17 18 21 24 25 24 20 23
65 61 56 54 45 43 45 43 66 50 51 51 67 57 46 58 52 22 18 19 24 27 32 38 40 42 37 34 26 21 17 15 12 11 12 13 21 23 17 16 15 26 22 20 14 14 21 23 29
75 49 54 51 40 48 59 36 50 42 47 49 36 53 60 42 41 21 23 25 27 31 36 39 41 39 34 30 20 16 14 13 10 11 17 22 29 24 20 19 23 17 17 12 14 18 23 23 30
61 57 54 45 37 39 58 44 47 44 50 43 47 54 52 48 22 23 27 30 34 36 39 40 41 35 28 24 18 16 12 12 10 10 16 23 22 21 20 17 20 15 13 12 16 22 16 15 20
60 52 33 38 37 55 39 39 48 47 40 50 45 46 34 37 32 33 37 40 43 44 43 40 38 32 27 21 15 11 12 10 9 10 19 17 13 15 20 22 17 14 15 15 20 15 14 14 15
63 60 36 66 29 41 47 51 44 40 37 51 27 22 30 34 35 37 42 45 47 46 43 38 35 30 25 19 14 13 12 6 9 12 14 6 11 10 17 18 15 13 15 17 16 14 11 10 17
79 55 71 48 46 32 34 33 32 34 25 28 37 44 34 38 37 42 45 47 48 46 41 37 33 28 23 19 16 13 8 8 10 11 9 6 4 5 11 14 13 14 18 18 16 13 9 9 13
66 56 45 43 55 45 28 25 18 14 32 39 37 31 47 42 41 46 49 50 47 43 40 35 30 27 24 19 15 9 7 9 7 5 5 4 5 8 10 11 12 15 19 17 15 9 10 9 10
49 46 61 42 37 34 31 21 6 8 24 15 32 40 52 48 49 52 52 50 47 43 38 34 30 28 25 19 14 10 3 5 3 2 4 3 5 13 9 12 14 15 16 18 14 10 11 8 8
62 65 59 36 53 33 23 12 11 9 31 10 24 38 53 49 51 54 54 52 48 44 38 34 31 28 24 20 15 11 3 1 7 6 3 2 4 12 14 14 13 17 17 16 13 12 13 12 11
Wind_Direction_500mb
164 145 126 218 243 234 237 239 268 131 211 176 326 285 328 334 325 1 121 149 157 162 166 180 193 201 203 209 206 202 199 218 282 320 327 323 311 300 286 270 261 261 263 276 286 282 288 288 271
163 160 173 255 253 233 233 230 180 242 29 328 272 262 245 304 345 334 149 178 172 173 181 178 186 195 203 207 209 201 203 210 254 304 314 317 309 302 294 276 257 262 250 262 281 282 278 281 286
175 181 253 229 234 257 288 274 241 90 240 256 266 198 321 329 30 321 53 175 174 180 196 186 188 186 195 202 206 208 215 222 243 283 312 322 315 304 293 284 280 279 260 256 275 276 279 272 275
179 215 258 258 252 232 286 183 85 273 223 240 290 292 169 43 335 343 277 183 185 189 189 196 195 193 197 201 207 214 224 235 251 272 295 314 314 303 282 272 277 281 282 277 279 280 269 260 265
208 247 246 237 249 269 274 273 296 293 270 284 173 279 271 103 95 27 204 193 198 202 200 215 200 203 206 207 213 221 230 241 256 272 291 302 313 301 281 277 278 274 271 267 267 273 264 261 257
220 235 248 245 242 243 249 261 258 267 263 259 251 263 292 111 68 325 245 221 216 214 206 217 207 211 213 215 218 227 236 246 255 268 279 288 303 295 284 273 271 272 272 272 265 265 257 255 255
233 234 249 266 282 290 282 258 262 271 262 246 179 291 280 188 119 300 279 249 226 221 214 207 226 213 216 222 223 228 237 246 254 262 271 278 290 288 282 275 272 270 273 269 265 264 258 256 256
238 258 269 262 263 270 278 254 254 252 280 92 233 267 275 69 332 303 297 274 247 232 226 216 221 216 218 223 227 229 235 243 251 259 266 274 283 284 285 283 274 273 275 273 266 268 264 258 255
233 252 248 250 258 266 275 239 248 295 291 281 273 271 271 285 292 287 289 283 266 244 232 226 225 220 216 219 230 230 236 242 249 255 263 274 278 272 280 284 274 283 279 279 280 274 266 261 258
230 237 246 252 265 265 262 269 269 217 240 261 266 266 267 265 275 285 286 279 272 258 244 233 224 221 210 207 219 236 238 242 250 253 250 270 272 267 257 252 258 270 281 276 276 285 280 265 254
230 240 256 252 258 266 271 266 277 277 274 273 277 282 302 293 286 283 280 279 275 277 252 237 232 217 214 208 210 219 220 224 233 238 242 250 257 262 266 269 259 272 288 285 286 291 290 253 242
244 239 249 257 271 273 260 266 261 265 274 283 279 283 286 285 284 285 286 284 282 274 254 242 224 226 216 207 206 213 213 215 223 236 250 258 254 264 263 256 260 260 260 267 258 265 265 254 246
238 244 248 257 262 262 269 279 273 269 272 281 280 280 281 280 281 285 286 284 281 270 264 254 223 229 221 204 209 206 211 218 218 233 244 248 249 254 257 274 267 251 250 255 254 248 254 253 251
249 253 256 259 260 264 269 269 264 259 268 273 274 278 275 278 284 289 290 286 280 272 258 255 227 224 225 216 201 213 209 209 220 228 240 249 254 251 254 266 265 256 255 255 258 248 248 250 242
257 261 261 256 257 261 257 264 261 266 269 272 270 272 268 274 285 292 294 290 282 275 258 242 220 219 227 216 205 210 214 208 216 230 238 244 252 260 260 261 261 264 252 246 248 245 245 251 250
249 253 257 252 253 249 247 259 265 267 269 266 269 271 276 278 288 294 295 286 277 265 257 242 218 215 220 212 207 206 208 215 216 226 238 249 258 256 255 259 262 264 253 257 252 251 243 241 246
237 243 241 252 248 250 242 256 261 269 265 268 267 273 271 281 290 292 292 280 271 261 247 234 212 207 210 207 204 204 208 210 217 230 241 247 254 268 260 265 270 267 265 268 247 253 246 239 244
230 236 244 254 256 243 246 256 252 263 265 266 268 266 273 281 291 296 287 272 261 254 240 218 210 200 204 198 194 201 211 215 221 234 242 246 255 258 261 265 265 269 268 268 248 244 233 238 243
241 247 247 251 239 244 261 265 249 258 259 261 262 263 273 280 288 290 275 254 258 230 215 209 197 193 191 189 192 200 207 219 229 237 243 248 259 253 259 271 272 273 266 253 254 237 232 236 231
242 250 252 260 259 254 249 261 266 258 258 270 274 266 272 278 277 278 261 241 248 210 195 187 184 185 180 187 187 199 209 225 234 240 246 261 252 258 270 278 268 262 254 247 236 231 235 240 228
234 235 243 251 259 258 267 267 263 258 266 266 270 271 268 272 267 268 238 216 198 190 183 176 174 175 170 180 178 185 192 208 241 256 258 266 263 248 254 252 257 252 253 246 236 240 232 215 202
235 229 240 251 258 259 254 263 258 259 255 259 258 259 255 255 263 230 205 195 187 181 171 166 165 165 167 173 184 186 207 229 245 236 265 259 260 248 239 243 240 244 245 243 234 216 200 202 188
242 234 236 240 249 259 255 257 265 272 265 266 258 258 258 256 238 184 195 189 178 170 164 161 159 159 171 170 179 195 211 243 247 242 253 270 256 254 228 233 237 248 239 215 193 208 212 205 193
239 235 242 245 247 249 246 245 264 261 263 262 255 257 248 235 176 179 178 172 165 158 155 157 154 158 165 167 175 194 202 209 226 258 271 278 270 246 203 227 242 235 218 184 191 214 200 186 180
224 224 225 230 228 243 247 244 257 266 270 249 244 257 227 177 167 165 168 164 159 158 156 157 155 160 163 166 176 192 191 210 250 275 282 287 272 245 200 218 225 218 180 192 207 205 186 185 181
222 211 215 218 222 241 232 243 255 266 241 250 251 270 156 168 166 166 169 162 161 159 157 158 158 161 163 168 179 179 200 250 291 274 280 283 240 230 207 209 213 194 173 182 209 181 191 205 210
214 210 219 246 231 246 258 235 226 250 238 244 239 224 199 170 166 168 165 162 162 159 159 159 160 162 164 170 176 182 218 236 269 265 268 255 209 202 191 199 174 169 160 180 199 185 178 189 167
229 211 209 225 240 243 232 253 215 224 227 227 237 215 185 165 170 167 164 163 161 160 158 158 162 163 165 172 171 195 212 254 261 242 254 248 150 168 168 165 151 155 165 177 191 196 173 181 186
217 211 213 224 229 235 251 246 171 248 272 231 206 198 172 170 171 165 164 163 161 160 159 159 162 163 168 170 161 181 158 252 226 171 205 222 177 150 169 146 142 150 161 177 188 184 165 178 200
213 217 203 222 217 236 268 196 97 224 247 253 195 168 163 172 167 165 165 164 164 161 162 164 164 166 171 165 163 153 141 203 162 130 67 145 155 158 164 151 144 153 159 162 170 165 175 187 189
Wind_Speed_850mb
20 24 17 9 12 14 31 26 27 7 16 3 9 13 20 26 24 10 11 10 19 33 11 14 21 25 24 21 17 14 11 7 4 7 12 17 21 21 18 18 19 20 22 22 21 21 25 23 18
22 19 11 13 14 24 29 27 20 21 14 9 15 17 19 17 18 9 10 19 22 32 15 15 23 28 28 25 20 18 15 9 5 7 11 15 20 24 24 19 17 18 21 18 21 24 23 25 22
23 18 15 10 25 27 21 4 15 14 9 15 11 6 17 11 2 9 5 16 27 33 21 19 25 29 30 28 25 23 19 15 11 9 13 19 22 24 24 25 24 23 22 27 21 20 22 23 23
23 18 26 21 36 30 27 17 11 7 20 13 18 19 7 3 4 3 2 18 24 29 32 22 29 32 33 32 30 26 23 20 16 15 16 20 23 22 22 24 27 30 30 30 29 27 23 23 22
28 31 26 29 36 33 14 29 2 15 25 13 3 24 5 19 5 4 2 17 20 26 30 30 31 36 36 36 33 30 27 24 22 21 21 25 26 24 23 27 31 35 35 35 37 32 28 26 29
32 40 27 30 39 35 13 20 24 25 28 15 7 22 13 10 5 4 4 15 20 25 33 37 33 42 41 40 38 35 32 30 30 27 27 28 30 29 29 30 37 37 36 35 36 39 39 35 37
40 27 33 37 35 31 11 23 21 28 27 16 7 14 15 8 5 5 8 14 23 27 34 38 38 45 47 45 43 40 38 37 37 36 34 34 34 31 33 33 35 34 34 36 38 41 38 40 42
49 27 46 36 33 36 27 12 32 21 18 10 6 17 25 18 7 14 17 17 24 29 34 39 39 42 48 51 52 48 46 44 43 43 40 39 39 38 34 34 38 34 36 34 35 39 43 46 46
44 33 35 42 42 34 31 17 25 7 22 24 24 31 33 34 27 28 27 25 26 31 37 39 41 40 43 47 49 55 54 50 48 47 46 40 34 29 35 38 32 41 41 41 42 38 41 43 47
51 32 51 43 38 38 35 23 32 19 26 37 38 42 35 23 30 37 39 39 39 35 41 43 47 46 44 41 40 44 49 54 49 40 30 30 28 27 29 30 35 45 44 43 40 35 36 36 29
58 48 48 48 55 56 48 38 39 44 33 40 36 49 37 42 43 44 47 47 44 49 43 50 54 56 51 43 42 36 31 34 32 35 33 30 29 28 28 30 33 34 29 27 26 27 19 22 21
59 69 64 64 71 62 47 60 49 54 51 43 50 59 54 49 50 52 54 58 63 60 48 49 55 63 66 49 47 41 37 35 32 28 32 31 26 28 28 29 27 31 25 27 26 24 26 28 24
63 56 70 74 73 72 73 73 58 65 65 60 59 60 58 57 57 56 59 65 67 66 60 46 59 70 70 67 48 48 45 39 32 30 29 30 27 29 27 38 32 36 32 30 29 27 29 27 30
76 78 80 83 84 83 66 72 79 66 77 77 61 63 64 61 57 62 69 73 69 65 52 44 61 71 66 65 59 61 53 36 33 28 27 30 30 27 25 31 35 33 32 35 37 34 30 34 32
86 70 69 72 72 65 67 74 69 75 78 78 66 67 66 53 59 67 70 65 59 56 47 44 58 63 65 62 64 53 42 42 31 26 26 30 30 28 29 30 34 41 30 37 37 44 35 32 35
67 67 60 62 66 68 56 69 57 75 70 65 58 65 51 57 63 64 60 56 53 44 41 40 52 53 59 55 53 49 38 31 28 26 24 27 30 33 30 37 39 36 35 38 41 40 37 33 33
56 58 71 62 60 55 56 75 56 69 70 70 66 46 53 64 64 63 57 47 39 41 40 44 51 48 53 51 44 40 39 34 23 23 23 26 30 33 32 41 37 37 36 35 38 40 37 31 31
62 65 64 65 56 57 62 70 56 62 57 69 61 53 67 67 65 63 50 36 33 32 37 45 45 48 54 42 41 35 31 25 22 22 23 26 29 33 38 35 35 35 35 35 31 38 33 28 27
62 52 66 62 55 60 59 62 45 55 69 61 64 53 66 68 67 51 34 33 28 25 30 40 41 51 48 43 39 34 28 21 20 22 24 26 29 29 30 35 40 37 33 32 36 31 30 28 29
63 63 65 59 58 50 50 57 49 50 49 67 67 65 62 74 50 42 22 19 19 21 28 33 39 47 45 38 35 27 23 20 19 19 20 30 26 29 27 28 25 25 27 29 26 27 30 30 30
63 63 60 64 51 52 52 52 59 58 59 64 82 82 71 52 56 46 20 14 18 25 31 36 41 41 41 33 31 26 19 21 16 18 20 25 24 20 22 21 19 17 18 21 24 25 24 20 23
65 61 56 54 45 43 45 43 66 50 51 51 67 57 46 58 52 22 18 19 24 27 32 38 40 42 37 34 26 21 17 15 12 11 12 13 21 23 17 16 15 26 22 20 14 14 21 23 29
75 49 54 51 40 48 59 36 50 42 47 49 36 53 60 42 41 21 23 25 27 31 36 39 41 39 34 30 20 16 14 13 10 11 17 22 29 24 20 19 23 17 17 12 14 18 23 23 30
61 57 54 45 37 39 58 44 47 44 50 43 47 54 52 48 22 23 27 30 34 36 39 40 41 35 28 24 18 16 12 12 10 10 16 23 22 21 20 17 20 15 13 12 16 22 16 15 20
60 52 33 38 37 55 39 39 48 47 40 50 45 46 34 37 32 33 37 40 43 44 43 40 38 32 27 21 15 11 12 10 9 10 19 17 13 15 20 22 17 14 15 15 20 15 14 14 15
63 60 36 66 29 41 47 51 44 40 37 51 27 22 30 34 35 37 42 45 47 46 43 38 35 30 25 19 14 13 12 6 9 12 14 6 11 10 17 18 15 13 15 17 16 14 11 10 17
79 55 71 48 46 32 34 33 32 34 25 28 37 44 34 38 37 42 45 47 48 46 41 37 33 28 23 19 16 13 8 8 10 11 9 6 4 5 11 14 13 14 18 18 16 13 9 9 13
66 56 45 43 55 45 28 25 18 14 32 39 37 31 47 42 41 46 49 50 47 43 40 35 30 27 24 19 15 9 7 9 7 5 5 4 5 8 10 11 12 15 19 17 15 9 10 9 10
49 46 61 42 37 34 31 21 6 8 24 15 32 40 52 48 49 52 52 50 47 43 38 34 30 28 25 19 14 10 3 5 3 2 4 3 5 13 9 12 14 15 16 18 14 10 11 8 8
62 65 59 36 53 33 23 12 11 9 31 10 24 38 53 49 51 54 54 52 48 44 38 34 31 28 24 20 15 11 3 1 7 6 3 2 4 12 14 14 13 17 17 16 13 12 13 12 11
Wind_Direction_850mb
164 145 126 218 243 234 237 239 268 131 211 176 326 285 328 334 325 1 121 149 157 162 166 180 193 201 203 209 206 202 199 218 282 320 327 323 311 300 286 270 261 261 263 276 286 282 288 288 271
163 160 173 255 253 233 233 230 180 242 29 328 272 262 245 304 345 334 149 178 172 173 181 178 186 195 203 207 209 201 203 210 254 304 314 317 309 302 294 276 257 262 250 262 281 282 278 281 286
175 181 253 229 234 257 288 274 241 90 240 256 266 198 321 329 30 321 53 175 174 180 196 186 188 186 195 202 206 208 215 222 243 283 312 322 315 304 293 284 280 279 260 256 275 276 279 272 275
179 215 258 258 252 232 286 183 85 273 223 240 290 292 169 43 335 343 277 183 185 189 189 196 195 193 197 201 207 214 224 235 251 272 295 314 314 303 282 272 277 281 282 277 279 280 269 260 265
208 247 246 237 249 269 274 273 296 293 270 284 173 279 271 103 95 27 204 193 198 202 200 215 200 203 206 207 213 221 230 241 256 272 291 302 313 301 281 277 278 274 271 267 267 273 264 261 257
220 235 248 245 242 243 249 261 258 267 263 259 251 263 292 111 68 325 245 221 216 214 206 217 207 211 213 215 218 227 236 246 255 268 279 288 303 295 284 273 271 272 272 272 265 265 257 255 255
233 234 249 266 282 290 282 258 262 271 262 246 179 291 280 188 119 300 279 249 226 221 214 207 226 213 216 222 223 228 237 246 254 262 271 278 290 288 282 275 272 270 273 269 265 264 258 256 256
238 258 269 262 263 270 278 254 254 252 280 92 233 267 275 69 332 303 297 274 247 232 226 216 221 216 218 223 227 229 235 243 251 259 266 274 283 284 285 283 274 273 275 273 266 268 264 258 255
233 252 248 250 258 266 275 239 248 295 291 281 273 271 271 285 292 287 289 283 266 244 232 226 225 220 216 219 230 230 236 242 249 255 263 274 278 272 280 284 274 283 279 279 280 274 266 261 258
230 237 246 252 265 265 262 269 269 217 240 261 266 266 267 265 275 285 286 279 272 258 244 233 224 221 210 207 219 236 238 242 250 253 250 270 272 267 257 252 258 270 281 276 276 285 280 265 254
230 240 256 252 258 266 271 266 277 277 274 273 277 282 302 293 286 283 280 279 275 277 252 237 232 217 214 208 210 219 220 224 233 238 242 250 257 262 266 269 259 272 288 285 286 291 290 253 242
244 239 249 257 271 273 260 266 261 265 274 283 279 283 286 285 284 285 286 284 282 274 254 242 224 226 216 207 206 213 213 215 223 236 250 258 254 264 263 256 260 260 260 267 258 265 265 254 246
238 244 248 257 262 262 269 279 273 269 272 281 280 280 281 280 281 285 286 284 281 270 264 254 223 229 221 204 209 206 211 218 218 233 244 248 249 254 257 274 267 251 250 255 254 248 254 253 251
249 253 256 259 260 264 269 269 264 259 268 273 274 278 275 278 284 289 290 286 280 272 258 255 227 224 225 216 201 213 209 209 220 228 240 249 254 251 254 266 265 256 255 255 258 248 248 250 242
257 261 261 256 257 261 257 264 261 266 269 272 270 272 268 274 285 292 294 290 282 275 258 242 220 219 227 216 205 210 214 208 216 230 238 244 252 260 260 261 261 264 252 246 248 245 245 251 250
249 253 257 252 253 249 247 259 265 267 269 266 269 271 276 278 288 294 295 286 277 265 257 242 218 215 220 212 207 206 208 215 216 226 238 249 258 256 255 259 262 264 253 257 252 251 243 241 246
237 243 241 252 248 250 242 256 261 269 265 268 267 273 271 281 290 292 292 280 271 261 247 234 212 207 210 207 204 204 208 210 217 230 241 247 254 268 260 265 270 267 265 268 247 253 246 239 244
230 236 244 254 256 243 246 256 252 263 265 266 268 266 273 281 291 296 287 272 261 254 240 218 210 200 204 198 194 201 211 215 221 234 242 246 255 258 261 265 265 269 268 268 248 244 233 238 243
241 247 247 251 239 244 261 265 249 258 259 261 262 263 273 280 288 290 275 254 258 230 215 209 197 193 191 189 192 200 207 219 229 237 243 248 259 253 259 271 272 273 266 253 254 237 232 236 231
242 250 252 260 259 254 249 261 266 258 258 270 274 266 272 278 277 278 261 241 248 210 195 187 184 185 180 187 187 199 209 225 234 240 246 261 252 258 270 278 268 262 254 247 236 231 235 240 228
234 235 243 251 259 258 267 267 263 258 266 266 270 271 268 272 267 268 238 216 198 190 183 176 174 175 170 180 178 185 192 208 241 256 258 266 263 248 254 252 257 252 253 246 236 240 232 215 202
235 229 240 251 258 259 254 263 258 259 255 259 258 259 255 255 263 230 205 195 187 181 171 166 165 165 167 173 184 186 207 229 245 236 265 259 260 248 239 243 240 244 245 243 234 216 200 202 188
242 234 236 240 249 259 255 257 265 272 265 266 258 258 258 256 238 184 195 189 178 170 164 161 159 159 171 170 179 195 211 243 247 242 253 270 256 254 228 233 237 248 239 215 193 208 212 205 193
239 235 242 245 247 249 246 245 264 261 263 262 255 257 248 235 176 179 178 172 165 158 155 157 154 158 165 167 175 194 202 209 226 258 271 278 270 246 203 227 242 235 218 184 191 214 200 186 180
224 224 225 230 228 243 247 244 257 266 270 249 244 257 227 177 167 165 168 164 159 158 156 157 155 160 163 166 176 192 191 210 250 275 282 287 272 245 200 218 225 218 180 192 207 205 186 185 181
222 211 215 218 222 241 232 243 255 266 241 250 251 270 156 168 166 166 169 162 161 159 157 158 158 161 163 168 179 179 200 250 291 274 280 283 240 230 207 209 213 194 173 182 209 181 191 205 210
214 210 219 246 231 246 258 235 226 250 238 244 239 224 199 170 166 168 165 162 162 159 159 159 160 162 164 170 176 182 218 236 269 265 268 255 209 202 191 199 174 169 160 180 199 185 178 189 167
229 211 209 225 240 243 232 253 215 224 227 227 237 215 185 165 170 167 164 163 161 160 158 158 162 163 165 172 171 195 212 254 261 242 254 248 150 168 168 165 151 155 165 177 191 196 173 181 186
217 211 213 224 229 235 251 246 171 248 272 231 206 198 172 170 171 165 164 163 161 160 159 159 162 163 168 170 161 181 158 252 226 171 205 222 177 150 169 146 142 150 161 177 188 184 165 178 200
213 217 203 222 217 236 268 196 97 224 247 253 195 168 163 172 167 165 165 164 164 161 162 164 164 166 171 165 163 153 141 203 162 130 67 145 155 158 164 151 144 153 159 162 170 165 175 187 189